Hoquiam, WA
on Monday, December 24, 2012

Monday
Previous Day Next Day
Daily Summary
 ActualAverageRecord
Temperature
Mean Temperature °F 41°F  
Max Temperature 46°F 46°F 58°F (1963)
Min Temperature 37°F 37°F 17°F (1983)
Degree Days
Heating Degree Days 24 24  
Month to date heating degree days 563  
Cooling Degree Days 0 0  
Month to date cooling degree days 0  
Year to date cooling degree days 23  
Moisture
Dew Point 39°F   
Average Humidity 90    
Maximum Humidity 100    
Minimum Humidity 73    
Precipitation
Precipitation 0.23 in 0.33 in 1.80 in (1973)
Month to date precipitation 7.72  
Year to date precipitation 65.31  
Wind
Wind Speed 4 mph   
Max Wind Speed 14 mph   
Max Gust Speed mph   
Visibility 8 miles   
Events Rain   

Key: T is trace of precipitation, MM is missing value
Source: NWS Daily Summary
Time(PST)TemperatureDew PointHumidity Pressure Visibility Wind DirectionWind SpeedGust SpeedPrecipitationEvents Conditions
12:53 AM 39.9°F 39.0°F 97% 29.88 in 10.0 miles Calm Calm - 0.02 in   Overcast
1:53 AM 37.9°F 37.0°F 97% 29.91 in 7.0 miles Calm Calm - 0.01 in Rain Light Rain
2:14 AM 39.2°F 37.4°F 93% 29.90 in 9.0 miles Calm Calm - 0.00 in Rain Light Rain
2:42 AM 37.4°F 37.4°F 100% 29.92 in 8.0 miles East 3.5 mph - 0.01 in Rain Light Rain
2:53 AM 39.0°F 37.9°F 96% 29.94 in 10.0 miles ENE 3.5 mph - 0.01 in   Overcast
3:03 AM 39.2°F 37.4°F 93% 29.93 in 6.0 miles Calm Calm - 0.00 in Rain Light Rain
3:27 AM 39.2°F 39.2°F 100% 29.93 in 10.0 miles Calm Calm - 0.00 in   Mostly Cloudy
3:53 AM 44.1°F 37.9°F 79% 29.95 in 10.0 miles West 13.8 mph - 0.00 in Rain Light Rain
4:38 AM 42.8°F 39.2°F 87% 29.96 in 5.0 miles West 11.5 mph - 0.03 in Rain Light Rain
4:53 AM 43.0°F 39.9°F 89% 29.97 in 9.0 miles West 10.4 mph - 0.04 in Rain Light Rain
5:53 AM 43.0°F 39.0°F 86% 30.00 in 10.0 miles West 9.2 mph - 0.01 in Rain Light Rain
6:53 AM 41.0°F 39.9°F 96% 30.04 in 10.0 miles Calm Calm - 0.00 in   Overcast
7:04 AM 42.8°F 39.2°F 87% 30.03 in 4.0 miles WNW 3.5 mph - 0.01 in Rain Light Rain
7:16 AM 42.8°F 39.2°F 87% 30.03 in 6.0 miles WSW 4.6 mph - 0.03 in Rain Light Rain
7:53 AM 42.1°F 39.9°F 92% 30.05 in 5.0 miles West 5.8 mph - 0.07 in Rain Light Rain
8:53 AM 43.0°F 41.0°F 93% 30.10 in 7.0 miles SSW 6.9 mph - 0.03 in Rain Light Rain
9:53 AM 43.0°F 41.0°F 93% 30.12 in 10.0 miles South 3.5 mph - 0.01 in   Mostly Cloudy
10:42 AM 44.6°F 41.0°F 87% 30.13 in 8.0 miles SW 8.1 mph - 0.01 in Rain Light Rain
10:53 AM 44.1°F 42.1°F 93% 30.14 in 6.0 miles South 5.8 mph - 0.02 in Rain Light Rain
11:53 AM 43.0°F 42.1°F 97% 30.15 in 2.0 miles ENE 3.5 mph - 0.01 in Rain Light Rain
12:09 PM 42.8°F 42.8°F 100% 30.14 in 4.0 miles East 3.5 mph - 0.00 in Rain Light Rain
12:53 PM 45.0°F 42.1°F 90% 30.16 in 10.0 miles Calm Calm - 0.00 in   Overcast
1:53 PM 46.0°F 37.9°F 73% 30.15 in 10.0 miles SSW 5.8 mph - N/A   Overcast
2:53 PM 45.0°F 39.0°F 80% 30.15 in 10.0 miles SSE 4.6 mph - N/A   Overcast
3:53 PM 44.1°F 37.9°F 79% 30.14 in 10.0 miles ESE 5.8 mph - N/A   Clear
4:53 PM 42.1°F 39.9°F 92% 30.14 in 10.0 miles East 6.9 mph - N/A   Clear
5:53 PM 42.1°F 39.0°F 89% 30.13 in 10.0 miles ENE 6.9 mph - N/A   Scattered Clouds
6:53 PM 41.0°F 37.0°F 86% 30.10 in 10.0 miles ENE 8.1 mph - N/A   Scattered Clouds
7:53 PM 41.0°F 37.0°F 86% 30.08 in 10.0 miles ENE 9.2 mph - N/A   Overcast
8:53 PM 41.0°F 37.0°F 86% 30.06 in 10.0 miles ENE 12.7 mph - N/A   Overcast
9:53 PM 39.9°F 37.0°F 89% 30.04 in 10.0 miles ENE 10.4 mph - N/A   Overcast
10:53 PM 39.9°F 37.0°F 89% 30.03 in 10.0 miles ENE 12.7 mph - N/A   Overcast
11:53 PM 41.0°F 37.0°F 86% 30.00 in 10.0 miles ENE 9.2 mph - 0.00 in Rain Light Rain
Moon Phase
Dec. 24 Dec. 28 Jan. 04 Jan. 11 Jan. 18
Sunrise:08:00 AM (PST) Moon Rise:02:06 PM (PST)12/24
Sunset:04:31 PM (PST) Moon Set:04:38 AM (PST)12/24

Copyright © 2014 The Weather Underground, Inc.